Regional Weather Roundup
Issued by NWS Tiyan, Guam

Home | Current Version | Previous Version | Text Only | Print | Product List | Glossary On
Versions: 1 2 3 4 5 6 7 8 9 10 11 12 13 14 15 16 17 18 19 20 21 22 23 24 25 26 27
000
ASGM40 PGUM 240012
RWRGUM
WEATHER ROUNDUP FOR THE MARIANAS
NATIONAL WEATHER SERVICE TIYAN GU
1000 AM CHST WED MAY 24 2017

GUZ001>004-240100-
MARIANA ISLANDS-

CITY           SKY/WX    TMP DP  RH WIND       PRES   REMARKS
GUAM AIRPORT   MOSUNNY   86  75  70 E13G18    29.90S HX  95
ANDERSEN AFB   MOSUNNY   86  75  70 SE14      29.91S HX  95
ROTA AIRPORT   PTSUNNY   82  73  74 S21       29.89S
TINIAN AP      MOSUNNY   86  73  66 E12       29.87S HX  93
SAIPAN AP      MOSUNNY   88  75  66 E12       29.88F HX  97

$$





USA.gov is the U.S. government's official web portal to all federal, state and local government web resources and services.